"Pseudo-MPEC" for ZX94C59

Created 2018 Dec 9 15:18:24 UT using Find_Orb

Click here for an explanation of pseudo-MPECs

 
 Astrometry: 
     ZX94C59  C2018 12 04.24786 03 53 52.54 +12 23 28.5          21.2 GVNEOCPG96
     ZX94C59  C2018 12 04.25347 03 53 52.42 +12 23 34.3          22.5 GVNEOCPG96
     ZX94C59  C2018 12 04.25908 03 53 52.23 +12 23 39.6          20.6 GVNEOCPG96
     ZX94C59  C2018 12 04.26469 03 53 52.03 +12 23 46.1          21.3 GVNEOCPG96
     ZX94C59  C2018 12 04.34801 03 53 49.55 +12 25 09.0          20.8 GVNEOCPI52
     ZX94C59  C2018 12 04.35182 03 53 49.42 +12 25 12.6          21.1 GVNEOCPI52
     ZX94C59  C2018 12 04.35564 03 53 49.32 +12 25 16.3          21.1 GVNEOCPI52
     ZX94C59  C2018 12 04.35946 03 53 49.21 +12 25 20.1          21.4 GVNEOCPI52
     ZX94C59 KC2018 12 04-C$eAstrometryv^;'2(O]dACU+U#=oDJZx)ABa,x^D98bAnt#w1J04
     ZX94C59 KC2018 12 04yA3Se]3A.:(:8@^,X'Lu*I`qhoGl3F3!S^gKYve6W\Oc;ODg$N7?J04
     ZX94C59  C2018 12 04.93693 03 53 36.46 +12 34 56.1          21.8 VSNEOCP033
     ZX94C59  C2018 12 04.94050 03 53 36.36 +12 34 59.7          22.0 VSNEOCP033
     ZX94C59 KC2018 12 04G8#GE;4pOd5kUmM*0h3U0l]!1]Zy]+!*wX+CNtm#^)n9PAw:d1otJ04
     ZX94C59  C2018 12 04.94406 03 53 36.24 +12 35 03.3          22.1 VSNEOCP033
     ZX94C59  C2018 12 04.94764 03 53 36.14 +12 35 06.8          21.8 VSNEOCP033
     ZX94C59 1C2018 12 063'nifk!K4OE\R*eFw;BuU,,%Zcf/Q0k2a1Wredacted;c]F8((kf658
     ZX94C59 1C2018 12 06KsEPSb941rs)X\@$tI`?i-1SIxltrk%%SuvF0XN1Q1i3RGaUa[Dn658
     ZX94C59 1C2018 12 06pDJPQFLx\V*ma;6NG7ixJ!lpS=o+ceO3;'3A%i$5sKPibXjyGGRL658
     ZX94C59 1C2018 12 06`%WjlLqnPIL?wwI@9'0mNWE%wwZ9huryee6ENfn_kQ.1E5v8=S7r658
     ZX94C59 1C2018 12 06Bk-eqCdEcYyclickH$PVjuEfgcsX[,G*TOuv)f^I7[36yl5GKfX;658
     ZX94C59 KC2018 12 06;U;b9ok5EuU]xm?1]rXs?)9QxTc3k]A-9\I,+ouQDQ4Bx-S[%1.yL01
     ZX94C59 KC2018 12 06YGQ!.D7XPC'LtKWbGUJTjOfy(43[VZ:$1o2U-D`PK2$Pifwx6RB@L01
     ZX94C59 KC2018 12 06ARp60'+C78AwhmcFw,3O^#[wSV9R55*_K;AV82IYckL8$2%Sp\hPL01
     ZX94C59 KC2018 12 07##CcN8*_Pbc%Sj+kH=JUg-hereCqAXU,JX0GA8_%Qiu9-Tmw_8yVH21
     ZX94C59 KC2018 12 077o[l!+$eSF$8%/\!IiU@oT?%qM#g$XMaJ(l)HEOL8.5N/^=?T74cH21
     ZX94C59 KC2018 12 07;vZB]_J*hr)=xAK4I5L@T'WBjg[J$,L?(-a@lfJZ8SQkOV%xE+?yH21
     ZX94C59 KC2018 12 08'B=-y:#?`Cit\wKML\,J'7C[$tVZlg;4^IP^=.#XQGRgDX:p:tulH21
     ZX94C59 KC2018 12 08^.FLmo#QfeTD!w*y/xo#yjxforkb/;.vEl*kw`u(M`7qWlHalW9aH21
     ZX94C59 KC2018 12 08BRUrx!i@T*o61VM\3@+NfgMQ43dKZ`$jXk4EeBO[Y:k`wXZ(,FxMH21
     ZX94C59 KC2018 12 09u-k?eG1TlPPvec6VJ34^ot+H3Q=NE*IRuirBTi*Vep@UDio(8Cg`691
     ZX94C59 KC2018 12 09!Riwu;sOub3R']L]p3xVf%V@qMo.N!Q%vmy%h;ltwPFZn:[oXk57691
     ZX94C59 KC2018 12 09W%H\!o5Z7QM2N#XbKO`D4Q3Shh[G_8L-u(explanationV0bm;5%691

Station data:
(033) Karl Schwarzschild Observatory, Tautenburg  (N50.980140 E11.711240)
   Germany. 1.3-m Schmidt.
(658) Dominion Astrophysical Observatory  (N48.519987 W123.417000)
   Canada/BritColumbia. 1.82-m Plaskett reflector.
(691) Steward Observatory, Kitt Peak - Spacewatch  (N31.962174 W111.600327)
   US/Arizona.  Observer J. V. Scotti. 0.9-m f/3 reflector + CCD.
(G96) Mt. Lemmon Survey  (N32.442754 W110.788720)  US/Arizona.  Observers B.
   M. Africano, E. J. Christensen, G. A. Farneth, D. C. Fuls, A. R. Gibbs, A.
   D. Grauer, H. Groeller, J. A. Johnson, R. A. Kowalski, S. M. Larson, G. J.
   Leonard, R. L. Seaman, F. C. Shelly. 1.5-m reflector + 10K CCD.
(H21) Astronomical Research Observatory, Westfield  (N39.483057 W87.968270)
   US/Illinois. 0.76-m f/3.0 astrograph + CCD.
(I52) Steward Observatory, Mt. Lemmon Station  (N32.442547 W110.788920)
   US/Arizona.  Observers B. M. Africano, E. J. Christensen, G. A. Farneth,
   D. C. Fuls, A. R. Gibbs, A. D. Grauer, H. Groeller, J. A. Johnson, R. A.
   Kowalski, S. M. Larson, G. J. Leonard, R. L. Seaman, F. C. Shelly. 1.0-m
   reflector + CCD.
(J04) ESA Optical Ground Station, Tenerife  (N28.300924 W16.511830)  Canary
   Islands (Spain).  Observer D. Abreu. Measurers M. Micheli, D. Koschny, E.
   Schwab, M. Busch, A. Knöfel. 1.0-m f/4.4 reflector + CCD.
(L01) Višnjan Observatory, Tičan  (N45.290900 E13.749300)  Croatia.
   Observers K. Korlević, E. Pettarin. Measurer E. Pettarin. 1.0-m f/2.9
   reflector + CCD.

Orbital elements:  ZX94C59
   Perihelion 2018 Nov 7.180112 +/- 0.252 TT =  4:19:21 (JD 2458429.680112)
Epoch 2018 Dec  9.0 TT = JDT 2458461.5   Earth MOID: 0.4277   Ma: 0.0173
M   9.16779490 +/- 0.10             (J2000 ecliptic)          AutoNEOCP
n   0.28811524 +/- 0.00225          Peri.  321.66640 +/- 0.19
a   2.27034516 +/- 0.0118           Node    87.37719 +/- 0.056
e   0.3799282 +/- 0.0022            Incl.    7.24421 +/- 0.041
P   3.42                   H 22.0   G  0.15   U  8.6  
q 1.40777680 +/- 0.00238    Q 3.13291352 +/- 0.0215
From 32 observations 2018 Dec. 4-9; mean residual 0".22
Residuals in arcseconds: 
181204 G96  .32-  .06-    181204 033  .17-  .05-    181206 L01  .29-  .35-    
181204 G96  .43+  .09+    181204 J04  .06+  .14-    181207 H21  .03+  .11-    
181204 G96  .16+  .25-    181204 033  .48-  .03-    181207 H21  .09+  .10-    
181204 G96  .26-  .61+    181204 033  .49-  .12-    181207 H21  .05-  .04-    
181204 I52  .33+  .25+    181206 658  .20+  .40+    181208 H21  .13+  .26+    
181204 I52  .08+  .07+    181206 658  .19+  .17+    181208 H21  .21+  .11+    
181204 I52  .26+  .03-    181206 658  .05+  .14+    181208 H21  .19+  .39+    
181204 I52  .29+  .02-    181206 658  .09-  .11+    181209 691  .30-  .20-    
181204 J04  .10+  .41-    181206 658  .09-  .18+    181209 691  .14-  .08+    
181204 J04  .06-  .11-    181206 L01  .03+  .05+    181209 691  .28+  .12-    
181204 033  .16-  .06-    181206 L01  .06-  .35-    

Ephemerides (geocentric):
Date (UTC) HH   RA              Dec         delta   r     elong  mag " sig PA
---- -- -- --  -------------   -----------  ------ ------ -----  --- ---- ---
2018 12 09 15  03 52 09.224   +13 54 10.94  .47016 1.4371 160.7 21.9 .245  73
2018 12 09 16  03 52 08.630   +13 54 53.17  .47031 1.4371 160.7 21.9 .255  73
2018 12 09 17  03 52 08.040   +13 55 35.40  .47046 1.4372 160.6 21.9 .264  74
2018 12 09 18  03 52 07.453   +13 56 17.63  .47061 1.4373 160.6 21.9 .274  74
2018 12 09 19  03 52 06.869   +13 56 59.86  .47076 1.4373 160.5 21.9 .284  75
2018 12 09 20  03 52 06.289   +13 57 42.09  .47092 1.4374 160.5 21.9 .295  75
2018 12 09 21  03 52 05.713   +13 58 24.32  .47107 1.4375 160.5 21.9 .305  75
2018 12 09 22  03 52 05.139   +13 59 06.55  .47122 1.4376 160.4 21.9 .316  76
2018 12 09 23  03 52 04.570   +13 59 48.77  .47137 1.4376 160.4 21.9 .326  76
2018 12 10 00  03 52 04.004   +14 00 31.00  .47153 1.4377 160.4 21.9 .337  76
2018 12 10 01  03 52 03.441   +14 01 13.22  .47168 1.4378 160.3 21.9 .348  76
2018 12 10 02  03 52 02.882   +14 01 55.45  .47183 1.4379 160.3 21.9 .359  77
2018 12 10 03  03 52 02.327   +14 02 37.67  .47199 1.4379 160.3 21.9 .371  77
2018 12 10 04  03 52 01.775   +14 03 19.89  .47214 1.4380 160.2 21.9 .382  77
2018 12 10 05  03 52 01.227   +14 04 02.10  .47229 1.4381 160.2 21.9 .394  77
2018 12 10 06  03 52 00.682   +14 04 44.32  .47245 1.4382 160.1 21.9 .405  78
2018 12 10 07  03 52 00.141   +14 05 26.54  .47260 1.4382 160.1 21.9 .417  78
2018 12 10 08  03 51 59.603   +14 06 08.75  .47276 1.4383 160.1 21.9 .429  78
2018 12 10 09  03 51 59.069   +14 06 50.96  .47291 1.4384 160.0 21.9 .441  78
2018 12 10 10  03 51 58.538   +14 07 33.17  .47307 1.4385 160.0 21.9 .454  78
2018 12 10 11  03 51 58.011   +14 08 15.38  .47322 1.4385 160.0 21.9 .466  78
2018 12 10 12  03 51 57.488   +14 08 57.59  .47338 1.4386 159.9 21.9 .479  79
2018 12 10 13  03 51 56.968   +14 09 39.79  .47354 1.4387 159.9 21.9 .491  79
2018 12 10 14  03 51 56.452   +14 10 21.99  .47369 1.4388 159.8 21.9 .504  79
2018 12 10 15  03 51 55.940   +14 11 04.19  .47385 1.4388 159.8 21.9 .517  79
2018 12 10 16  03 51 55.431   +14 11 46.39  .47401 1.4389 159.8 21.9 .531  79
2018 12 10 17  03 51 54.925   +14 12 28.59  .47417 1.4390 159.7 21.9 .544  79
2018 12 10 18  03 51 54.424   +14 13 10.78  .47432 1.4391 159.7 21.9 .557  79
2018 12 10 19  03 51 53.926   +14 13 52.98  .47448 1.4392 159.7 21.9 .571  80
2018 12 10 20  03 51 53.431   +14 14 35.17  .47464 1.4392 159.6 21.9 .585  80
2018 12 10 21  03 51 52.941   +14 15 17.35  .47480 1.4393 159.6 21.9 .599  80
2018 12 10 22  03 51 52.454   +14 15 59.54  .47496 1.4394 159.6 21.9 .613  80
2018 12 10 23  03 51 51.970   +14 16 41.72  .47512 1.4395 159.5 21.9 .627  80
2018 12 11 00  03 51 51.490   +14 17 23.90  .47528 1.4395 159.5 21.9 .641  80
2018 12 11 01  03 51 51.014   +14 18 06.08  .47544 1.4396 159.4 21.9 .656  80
2018 12 11 02  03 51 50.542   +14 18 48.26  .47560 1.4397 159.4 21.9 .670  80
2018 12 11 03  03 51 50.073   +14 19 30.43  .47576 1.4398 159.4 21.9 .685  81
2018 12 11 04  03 51 49.608   +14 20 12.60  .47592 1.4398 159.3 21.9 .700  81
2018 12 11 05  03 51 49.147   +14 20 54.77  .47608 1.4399 159.3 21.9 .715  81
2018 12 11 06  03 51 48.689   +14 21 36.93  .47624 1.4400 159.3 21.9 .730  81
2018 12 11 07  03 51 48.235   +14 22 19.09  .47640 1.4401 159.2 21.9 .746  81
2018 12 11 08  03 51 47.785   +14 23 01.25  .47656 1.4402 159.2 21.9 .761  81
2018 12 11 09  03 51 47.338   +14 23 43.41  .47672 1.4402 159.1 21.9 .777  81
2018 12 11 10  03 51 46.896   +14 24 25.56  .47689 1.4403 159.1 21.9 .793  81
2018 12 11 11  03 51 46.457   +14 25 07.71  .47705 1.4404 159.1 21.9 .809  81
2018 12 11 12  03 51 46.021   +14 25 49.86  .47721 1.4405 159.0 21.9 .825  81
2018 12 11 13  03 51 45.590   +14 26 32.00  .47737 1.4405 159.0 21.9 .841  81
2018 12 11 14  03 51 45.162   +14 27 14.14  .47754 1.4406 159.0 21.9 .857  81